Location: Mercogliano
(40.9167°N, 14.7333°E)
Time: 04:25:14
(UTC+00:00)

Cosmos 1975 Rocket - Pass Details

Date: 18 September 2020
Orbit: 603 x 634 km, 82.5° (Epoch: 25 October)

Event Time Altitude Azimuth Distance (km) Brightness Sun altitude
Rises 17:29:48 0° 1° (N) 2,875 6.6 -5.6°
Reaches altitude 10° 17:32:12 10° 11° (N) 1,963 5.6 -6.0°
Maximum altitude 17:36:09 33° 76° (ENE) 1,016 3.7 -6.8°
Drops below altitude 10° 17:40:03 10° 142° (SE) 1,943 5.2 -7.5°
Sets 17:42:25 0° 152° (SSE) 2,841 6.1 -8.0°
